FW7023 Weather Reports


time (UTC)temp
C
wind
direction
speed
KPH
gust
KPH
rain 1hr
cm
rain 24hr
cm
rain mn
cm
humidity
%
barometer
mb
20260906172319 36 161 0.0 1.6 0.00 0.00 0.00 50 1014.6
20260906171820 35 173 0.0 0.0 0.00 0.00 0.00 53 1014.6
20260906171314 35 157 1.6 1.6 0.00 0.00 0.00 55 1014.8
20260906170810 35 221 4.8 4.8 0.00 0.00 0.00 51 1014.8
20260906170306 35 117 1.6 3.2 0.00 0.00 0.00 52 1014.8
20260906165802 35 147 0.0 1.6 0.00 0.00 0.00 54 1015.0
20260906165301 34 134 1.6 1.6 0.00 0.00 0.00 55 1015.1
20260906164755 35 148 0.0 1.6 0.00 0.00 0.00 56 1015.1
20260906164250 34 121 1.6 1.6 0.00 0.00 0.00 56 1015.1
20260906163746 35 169 0.0 0.0 0.00 0.00 0.00 56 1015.1
20260906163242 35 140 0.0 0.0 0.00 0.00 0.00 56 1015.0
20260906162739 35 178 1.6 1.6 0.00 0.00 0.00 54 1015.3
20260906162234 34 157 0.0 1.6 0.00 0.00 0.00 57 1015.0
20260906161733 33 152 1.6 1.6 0.00 0.00 0.00 58 1015.0
20260906161233 34 90 1.6 3.2 0.00 0.00 0.00 57 1015.0
20260906160732 34 164 0.0 0.0 0.00 0.00 0.00 58 1015.1
20260906160226 34 120 1.6 1.6 0.00 0.00 0.00 57 1014.9
20260906155723 33 139 0.0 1.6 0.00 0.00 0.00 58 1014.9
20260906155218 33 146 0.0 1.6 0.00 0.00 0.00 58 1015.2
20260906154714 33 171 0.0 1.6 0.00 0.00 0.00 61 1015.2
20260906154209 33 177 1.6 1.6 0.00 0.00 0.00 59 1015.1
20260906153707 33 160 0.0 0.0 0.00 0.00 0.00 60 1015.1
20260906153202 32 151 1.6 1.6 0.00 0.00 0.00 61 1015.0
20260906152657 32 171 0.0 1.6 0.00 0.00 0.00 62 1015.1
20260906152151 32 171 1.6 1.6 0.00 0.00 0.00 62 1014.9
20260906151645 32 153 0.0 0.0 0.00 0.00 0.00 62 1015.0
20260906151142 31 154 1.6 1.6 0.00 0.00 0.00 63 1015.0
20260906150636 31 147 0.0 0.0 0.00 0.00 0.00 65 1015.0
20260906150132 31 140 1.6 1.6 0.00 0.00 0.00 66 1015.0
20260906145631 30 150 0.0 1.6 0.00 0.00 0.00 66 1015.0
20260906145125 31 101 1.6 1.6 0.00 0.00 0.00 66 1015.2
20260906144620 31 167 0.0 0.0 0.00 0.00 0.00 66 1014.8
20260906144115 30 137 0.0 1.6 0.00 0.00 0.00 68 1014.8
20260906143615 30 156 0.0 1.6 0.00 0.00 0.00 69 1015.2
20260906143112 29 152 0.0 0.0 0.00 0.00 0.00 71 1015.1
20260906142611 29 120 1.6 1.6 0.00 0.00 0.00 71 1014.9
20260906142106 28 102 1.6 1.6 0.00 0.00 0.00 73 1014.9
20260906141605 28 159 1.6 1.6 0.00 0.00 0.00 73 1015.0
20260906141101 28 144 0.0 1.6 0.00 0.00 0.00 75 1015.1
20260906140559 27 90 1.6 1.6 0.00 0.00 0.00 77 1015.2
20260906140054 27 129 0.0 0.0 0.00 0.00 0.00 80 1015.1
20260906135551 26 131 3.2 3.2 0.00 0.00 0.00 81 1015.1
20260906135048 26 145 1.6 1.6 0.00 0.00 0.00 81 1015.0
20260906134543 26 130 1.6 3.2 0.00 0.00 0.00 82 1015.0
20260906134038 26 121 1.6 1.6 0.00 0.00 0.00 83 1015.1
20260906133533 25 149 0.0 1.6 0.00 0.00 0.00 84 1014.8
20260906133029 25 154 0.0 1.6 0.00 0.00 0.00 84 1014.9
20260906132524 25 143 1.6 1.6 0.00 0.00 0.00 84 1015.1
20260906132019 25 147 0.0 0.0 0.00 0.00 0.00 86 1014.6
20260906131514 25 152 0.0 0.0 0.00 0.00 0.00 87 1014.8
20260906131010 24 139 1.6 1.6 0.00 0.00 0.00 87 1014.6
20260906130509 24 132 1.6 3.2 0.00 0.00 0.00 88 1014.8
20260906130004 24 151 0.0 1.6 0.00 0.00 0.00 89 1014.9
20260906125502 23 152 0.0 0.0 0.00 0.00 0.00 91 1014.5
20260906125001 23 154 0.0 0.0 0.00 0.00 0.00 93 1014.5
20260906124457 23 151 0.0 0.0 0.00 0.00 0.00 93 1014.5
20260906123951 23 151 0.0 0.0 0.00 0.00 0.00 94 1014.2
20260906123451 22 160 0.0 0.0 0.00 0.00 0.00 94 1014.3
20260906122950 22 160 0.0 0.0 0.00 0.00 0.00 94 1014.3
20260906122445 22 160 0.0 0.0 0.00 0.00 0.00 94 1014.4
20260906121942 22 160 0.0 0.0 0.00 0.00 0.00 93 1014.3
20260906121438 22 155 0.0 0.0 0.00 0.00 0.00 93 1014.1
20260906120934 22 155 0.0 0.0 0.00 0.00 0.00 93 1014.1
20260906120429 22 154 0.0 0.0 0.00 0.00 0.00 93 1014.0
20260906115926 22 153 0.0 0.0 0.00 0.00 0.00 93 1014.2
20260906115421 22 151 0.0 0.0 0.00 0.00 0.00 93 1014.0
20260906114920 22 158 0.0 0.0 0.00 0.00 0.00 93 1014.0
20260906114415 22 158 0.0 0.0 0.00 0.00 0.00 93 1013.9
20260906113911 22 167 0.0 0.0 0.00 0.00 0.00 93 1013.8
20260906113409 22 159 0.0 0.0 0.00 0.00 0.00 92 1013.7
20260906112905 22 156 0.0 0.0 0.00 0.00 0.00 92 1013.7
20260906112401 23 155 0.0 0.0 0.00 0.00 0.00 92 1013.6
20260906111855 22 161 0.0 0.0 0.00 0.00 0.00 92 1013.4
20260906111355 22 161 0.0 0.0 0.00 0.00 0.00 92 1013.4
20260906110850 22 161 0.0 0.0 0.00 0.00 0.00 92 1013.6
20260906110346 23 161 0.0 0.0 0.00 0.00 0.00 92 1013.5
20260906105845 23 161 0.0 0.0 0.00 0.00 0.00 92 1013.6
20260906105341 23 161 0.0 0.0 0.00 0.00 0.00 92 1013.5
20260906104836 23 161 0.0 0.0 0.00 0.00 0.00 92 1013.5
20260906104335 23 163 0.0 0.0 0.00 0.00 0.00 92 1013.6
20260906103833 23 163 0.0 0.0 0.00 0.00 0.00 92 1013.7
20260906103332 23 158 0.0 0.0 0.00 0.00 0.00 92 1013.6
20260906102828 23 156 0.0 0.0 0.00 0.00 0.00 92 1013.5
20260906102327 23 158 0.0 0.0 0.00 0.00 0.00 92 1013.4
20260906101822 23 153 0.0 0.0 0.00 0.00 0.00 91 1013.6
20260906101317 23 153 0.0 0.0 0.00 0.00 0.00 91 1013.4
20260906100813 23 153 0.0 0.0 0.00 0.00 0.00 91 1013.6
20260906100312 23 153 0.0 0.0 0.00 0.00 0.00 91 1013.5
20260906095807 23 158 0.0 0.0 0.00 0.00 0.00 91 1013.5
20260906095305 23 162 0.0 0.0 0.00 0.00 0.00 91 1013.4
20260906094802 23 163 0.0 0.0 0.00 0.00 0.00 91 1013.1
20260906094257 23 158 0.0 0.0 0.00 0.00 0.00 91 1013.4
20260906093753 23 157 0.0 0.0 0.00 0.00 0.00 90 1013.5
20260906093249 23 157 0.0 0.0 0.00 0.00 0.00 91 1013.3
20260906092743 23 156 0.0 0.0 0.00 0.00 0.00 90 1013.5
20260906092238 23 158 0.0 0.0 0.00 0.00 0.00 90 1013.1
20260906091734 23 162 0.0 0.0 0.00 0.00 0.00 89 1013.2
20260906091230 23 157 0.0 0.0 0.00 0.00 0.00 89 1013.1
20260906090726 23 159 0.0 0.0 0.00 0.00 0.00 89 1013.1
20260906090225 23 152 0.0 0.0 0.00 0.00 0.00 89 1013.3
20260906085724 23 152 0.0 0.0 0.00 0.00 0.00 89 1013.0
20260906085223 23 173 0.0 0.0 0.00 0.00 0.00 89 1013.2
20260906084718 23 160 0.0 0.0 0.00 0.00 0.00 89 1013.0
20260906084213 23 171 0.0 0.0 0.00 0.00 0.00 89 1012.7
20260906083708 23 151 0.0 0.0 0.00 0.00 0.00 89 1012.9
20260906083203 23 143 0.0 0.0 0.00 0.00 0.00 89 1013.1
20260906082658 23 168 0.0 0.0 0.00 0.00 0.00 89 1013.1
20260906082153 23 128 0.0 0.0 0.00 0.00 0.00 88 1013.0
20260906081649 23 155 0.0 0.0 0.00 0.00 0.00 88 1012.8
20260906081144 24 159 0.0 0.0 0.00 0.00 0.00 88 1012.8
20260906080641 24 155 0.0 0.0 0.00 0.00 0.00 88 1013.1
20260906080137 24 156 0.0 0.0 0.00 0.00 0.00 88 1012.9
20260906075636 24 156 0.0 0.0 0.00 0.00 0.00 88 1013.0
20260906075131 24 156 0.0 0.0 0.00 0.00 0.00 88 1012.6
20260906074626 24 160 0.0 0.0 0.00 0.00 0.00 88 1012.8
20260906074125 24 160 0.0 0.0 0.00 0.00 0.00 88 1012.6
20260906073620 24 159 0.0 0.0 0.00 0.00 0.00 88 1012.7
20260906073115 25 159 0.0 0.0 0.00 0.00 0.00 88 1012.9
20260906072610 25 160 0.0 0.0 0.00 0.00 0.00 88 1012.7
20260906072106 25 160 0.0 0.0 0.00 0.00 0.00 88 1012.7
20260906071603 25 160 0.0 0.0 0.00 0.00 0.00 88 1012.7
20260906071057 25 161 0.0 0.0 0.00 0.00 0.00 88 1012.7
20260906070554 25 155 0.0 0.0 0.00 0.00 0.00 88 1012.9
20260906070049 25 166 0.0 0.0 0.00 0.00 0.00 88 1012.8
20260906065548 25 135 0.0 0.0 0.00 0.00 0.00 88 1013.2
20260906065044 25 177 0.0 0.0 0.00 0.00 0.00 88 1013.1
20260906064539 25 174 0.0 0.0 0.00 0.00 0.00 87 1013.3
20260906064029 25 157 0.0 0.0 0.00 0.00 0.00 88 1013.3
20260906063524 25 153 0.0 0.0 0.00 0.00 0.00 87 1013.2
20260906063020 25 153 0.0 0.0 0.00 0.00 0.00 87 1013.0
20260906062515 25 146 0.0 0.0 0.00 0.00 0.00 86 1013.3
20260906062009 25 162 0.0 0.0 0.00 0.00 0.00 85 1013.2
20260906061505 25 164 0.0 0.0 0.00 0.00 0.00 85 1013.2
20260906060959 25 162 0.0 0.0 0.00 0.00 0.00 85 1013.2
20260906060456 25 162 0.0 0.0 0.00 0.00 0.00 85 1013.1
20260906055953 25 159 0.0 0.0 0.00 0.00 0.00 85 1013.2
20260906055448 25 161 0.0 0.0 0.00 0.00 0.00 84 1013.2
20260906054944 25 163 0.0 0.0 0.00 0.00 0.00 85 1013.3
20260906054443 25 161 0.0 0.0 0.00 0.00 0.00 84 1013.3
20260906053939 25 159 0.0 0.0 0.00 0.00 0.00 84 1013.4
20260906053436 25 159 0.0 0.0 0.00 0.00 0.00 84 1013.2
20260906052931 25 158 0.0 0.0 0.00 0.00 0.00 83 1013.3
20260906052427 25 156 0.0 0.0 0.00 0.00 0.00 83 1013.4
20260906051923 25 158 0.0 0.0 0.00 0.00 0.00 84 1013.2
20260906051418 25 165 0.0 0.0 0.00 0.00 0.00 83 1013.3
20260906050914 25 163 0.0 0.0 0.00 0.00 0.00 83 1013.3
20260906050414 25 163 0.0 0.0 0.00 0.00 0.00 83 1013.3
20260906045913 26 163 0.0 0.0 0.00 0.00 0.00 82 1013.2
20260906045412 26 163 0.0 0.0 0.00 0.00 0.00 82 1013.4
20260906044908 26 163 0.0 0.0 0.00 0.00 0.00 82 1013.2
20260906044403 26 163 0.0 0.0 0.00 0.00 0.00 82 1013.2
20260906043859 26 163 0.0 0.0 0.00 0.00 0.00 81 1013.3
20260906043354 26 164 0.0 0.0 0.00 0.00 0.00 81 1013.4
20260906042849 26 164 0.0 0.0 0.00 0.00 0.00 80 1013.2
20260906042348 26 161 0.0 0.0 0.00 0.00 0.00 80 1013.0
20260906041844 26 160 0.0 0.0 0.00 0.00 0.00 80 1013.0
20260906041339 26 162 0.0 0.0 0.00 0.00 0.00 79 1013.1
20260906040834 26 162 0.0 0.0 0.00 0.00 0.00 79 1013.1
20260906040329 26 162 0.0 0.0 0.00 0.00 0.00 78 1013.1
20260906035824 26 167 0.0 0.0 0.00 0.00 0.00 78 1012.8
20260906035319 26 162 0.0 0.0 0.00 0.00 0.00 78 1013.0
20260906034815 27 162 0.0 0.0 0.00 0.00 0.00 78 1013.1
20260906034315 27 162 0.0 0.0 0.00 0.00 0.00 77 1012.9
20260906033811 27 164 0.0 0.0 0.00 0.00 0.00 77 1012.7
20260906033309 27 164 0.0 0.0 0.00 0.00 0.00 77 1012.6
20260906032807 27 164 0.0 0.0 0.00 0.00 0.00 77 1012.8
20260906032305 27 165 0.0 0.0 0.00 0.00 0.00 76 1012.6
20260906031757 27 165 0.0 0.0 0.00 0.00 0.00 75 1012.7
20260906031253 27 168 0.0 0.0 0.00 0.00 0.00 74 1012.7
20260906030752 27 163 0.0 0.0 0.00 0.00 0.00 74 1012.7
20260906030248 27 163 0.0 0.0 0.00 0.00 0.00 74 1012.5
20260906025747 27 160 0.0 0.0 0.00 0.00 0.00 73 1012.4
20260906025241 28 160 0.0 0.0 0.00 0.00 0.00 73 1012.6
20260906024740 28 162 0.0 0.0 0.00 0.00 0.00 72 1012.4
20260906024239 28 165 0.0 0.0 0.00 0.00 0.00 72 1012.3
20260906023735 28 164 0.0 0.0 0.00 0.00 0.00 71 1012.1
20260906023230 28 165 0.0 0.0 0.00 0.00 0.00 70 1012.2
20260906022726 28 162 0.0 0.0 0.00 0.00 0.00 70 1012.2
20260906022221 28 162 0.0 0.0 0.00 0.00 0.00 70 1012.0
20260906021717 28 156 0.0 0.0 0.00 0.00 0.00 69 1012.0
20260906021216 28 161 0.0 0.0 0.00 0.00 0.00 69 1012.0
20260906020711 29 165 0.0 0.0 0.00 0.00 0.00 69 1011.9
20260906020205 29 163 0.0 0.0 0.00 0.00 0.00 68 1011.7
20260906015700 29 164 0.0 0.0 0.00 0.00 0.00 68 1011.4
20260906015159 30 163 0.0 0.0 0.00 0.00 0.00 66 1011.6
20260906014659 30 163 0.0 0.0 0.00 0.00 0.00 66 1011.6
20260906014154 30 157 0.0 0.0 0.00 0.00 0.00 65 1011.7
20260906013644 30 153 0.0 0.0 0.00 0.00 0.00 66 1011.6
20260906013140 30 169 1.6 1.6 0.00 0.00 0.00 65 1011.4
20260906012639 30 162 0.0 0.0 0.00 0.00 0.00 65 1011.4
20260906012129 30 165 0.0 0.0 0.00 0.00 0.00 66 1011.5
20260906011624 30 161 0.0 0.0 0.00 0.00 0.00 65 1011.5
20260906011124 30 162 0.0 0.0 0.00 0.00 0.00 65 1011.6
20260906010620 31 167 0.0 0.0 0.00 0.00 0.00 63 1011.5
20260906010116 31 151 0.0 0.0 0.00 0.00 0.00 62 1011.4
20260906005610 31 161 0.0 0.0 0.00 0.00 0.00 62 1011.4
20260906005109 31 157 0.0 0.0 0.00 0.00 0.00 62 1011.4
20260906004608 31 163 0.0 0.0 0.00 0.00 0.00 62 1011.1
20260906004103 31 167 0.0 0.0 0.00 0.00 0.00 61 1011.1
20260906003558 31 169 0.0 1.6 0.00 0.00 0.00 60 1011.2
20260906003055 32 162 0.0 0.0 0.00 0.00 0.00 60 1011.1
20260906002555 32 156 0.0 0.0 0.00 0.00 0.00 58 1011.2
20260906002049 32 149 0.0 0.0 0.00 0.00 0.00 57 1011.4
20260906001545 33 159 0.0 0.0 0.00 0.00 0.00 57 1011.4
20260906001039 33 154 0.0 0.0 0.00 0.00 0.00 56 1011.5
20260906000535 33 160 0.0 0.0 0.00 0.00 0.00 55 1011.3
20260906000030 34 167 0.0 1.6 0.00 0.00 0.00 54 1011.2
20260905235529 35 155 0.0 0.0 0.00 0.00 0.00 51 1011.2
20260905235024 35 145 0.0 0.0 0.00 0.00 0.00 47 1011.2
20260905234515 35 160 0.0 0.0 0.00 0.00 0.00 47 1011.1
20260905234015 35 161 0.0 1.6 0.00 0.00 0.00 47 1011.2
20260905233510 35 132 0.0 1.6 0.00 0.00 0.00 47 1011.2
20260905233009 35 154 0.0 0.0 0.00 0.00 0.00 47 1011.0
20260905232505 36 152 0.0 0.0 0.00 0.00 0.00 46 1011.2
20260905232000 36 175 1.6 3.2 0.00 0.00 0.00 45 1011.1
20260905231455 36 147 0.0 0.0 0.00 0.00 0.00 45 1011.1
20260905230952 36 110 1.6 1.6 0.00 0.00 0.00 44 1010.9
20260905230451 36 168 3.2 4.8 0.00 0.00 0.00 43 1011.2
20260905225948 36 159 0.0 0.0 0.00 0.00 0.00 44 1011.1
20260905225444 36 160 0.0 0.0 0.00 0.00 0.00 44 1011.1
20260905224938 36 149 0.0 0.0 0.00 0.00 0.00 45 1011.0
20260905224429 36 185 3.2 3.2 0.00 0.00 0.00 44 1010.7
20260905223928 36 190 0.0 0.0 0.00 0.00 0.00 45 1011.0
20260905223426 36 156 0.0 0.0 0.00 0.00 0.00 45 1010.9
20260905222921 36 164 0.0 0.0 0.00 0.00 0.00 46 1010.9
20260905222420 37 108 1.6 1.6 0.00 0.00 0.00 43 1011.0
20260905221916 37 161 0.0 1.6 0.00 0.00 0.00 43 1010.9
20260905221412 37 123 1.6 3.2 0.00 0.00 0.00 43 1011.3
20260905220908 37 192 3.2 3.2 0.00 0.00 0.00 43 1011.2
20260905220404 37 122 3.2 3.2 0.00 0.00 0.00 44 1011.3
20260905215903 36 159 0.0 0.0 0.00 0.00 0.00 45 1011.3
20260905215359 36 97 1.6 1.6 0.00 0.00 0.00 44 1011.5
20260905214855 36 173 0.0 0.0 0.00 0.00 0.00 45 1011.6
20260905214350 36 123 0.0 1.6 0.00 0.00 0.00 45 1011.5
20260905213845 36 140 1.6 1.6 0.00 0.00 0.00 45 1011.7
20260905213341 37 84 4.8 4.8 0.00 0.00 0.00 44 1011.7
20260905212836 37 152 3.2 3.2 0.00 0.00 0.00 44 1012.1
20260905212335 37 171 1.6 1.6 0.00 0.00 0.00 46 1011.9
20260905211830 36 171 0.0 0.0 0.00 0.00 0.00 46 1011.9
20260905211326 36 60 4.8 4.8 0.00 0.00 0.00 46 1011.8
20260905210822 36 61 3.2 4.8 0.00 0.00 0.00 46 1012.1
20260905210322 36 129 3.2 3.2 0.00 0.00 0.00 45 1012.0
20260905205821 36 134 1.6 3.2 0.00 0.00 0.00 46 1012.0
20260905205315 36 75 6.4 8.0 0.00 0.00 0.00 46 1011.9
20260905204815 36 120 3.2 3.2 0.00 0.00 0.00 47 1012.1
20260905204311 36 146 1.6 1.6 0.00 0.00 0.00 47 1012.1
20260905203810 36 58 1.6 1.6 0.00 0.00 0.00 47 1012.3
20260905203306 36 75 3.2 8.0 0.00 0.00 0.00 46 1012.0
20260905202801 36 149 0.0 1.6 0.00 0.00 0.00 47 1012.2
20260905202256 36 141 1.6 1.6 0.00 0.00 0.00 48 1012.3
20260905201751 35 152 3.2 3.2 0.00 0.00 0.00 48 1012.6
20260905201246 35 129 1.6 1.6 0.00 0.00 0.00 49 1012.6
20260905200741 36 147 0.0 0.0 0.00 0.00 0.00 48 1012.6
20260905200237 36 117 3.2 3.2 0.00 0.00 0.00 47 1012.7
20260905195735 36 161 1.6 1.6 0.00 0.00 0.00 46 1012.5
20260905195230 36 90 1.6 3.2 0.00 0.00 0.00 44 1012.7
20260905194726 36 60 3.2 3.2 0.00 0.00 0.00 42 1012.6
20260905194225 37 96 1.6 1.6 0.00 0.00 0.00 42 1012.8
20260905193719 37 161 0.0 0.0 0.00 0.00 0.00 41 1012.9
20260905193214 37 104 1.6 1.6 0.00 0.00 0.00 40 1012.6
20260905192710 38 122 3.2 3.2 0.00 0.00 0.00 41 1013.0
20260905192206 38 171 0.0 0.0 0.00 0.00 0.00 39 1013.1
20260905191705 37 170 0.0 1.6 0.00 0.00 0.00 43 1013.1
20260905191203 37 160 0.0 0.0 0.00 0.00 0.00 43 1013.2
20260905190702 38 102 1.6 1.6 0.00 0.00 0.00 42 1013.0
20260905190201 38 186 3.2 3.2 0.00 0.00 0.00 40 1013.1
20260905185700 38 168 0.0 0.0 0.00 0.00 0.00 39 1013.4
20260905185155 39 175 0.0 0.0 0.00 0.00 0.00 38 1013.4
20260905184655 39 174 1.6 1.6 0.00 0.00 0.00 37 1013.2
20260905184154 38 175 0.0 0.0 0.00 0.00 0.00 40 1013.2
20260905183648 37 175 0.0 0.0 0.00 0.00 0.00 39 1013.4
20260905183143 37 166 0.0 0.0 0.00 0.00 0.00 41 1013.4
20260905182642 37 169 0.0 0.0 0.00 0.00 0.00 42 1013.6
20260905182142 37 151 1.6 1.6 0.00 0.00 0.00 41 1013.5
20260905181638 37 172 0.0 0.0 0.00 0.00 0.00 42 1013.7
20260905181137 37 173 1.6 3.2 0.00 0.00 0.00 41 1013.6
20260905180632 36 181 0.0 0.0 0.00 0.00 0.00 44 1013.6
20260905180127 36 132 1.6 1.6 0.00 0.00 0.00 44 1013.9
20260905175626 37 149 0.0 0.0 0.00 0.00 0.00 45 1013.9
20260905175122 37 150 1.6 1.6 0.00 0.00 0.00 45 1014.1
20260905174617 37 138 0.0 0.0 0.00 0.00 0.00 44 1013.8
20260905174112 37 175 0.0 0.0 0.00 0.00 0.00 41 1014.1
20260905173609 37 169 0.0 0.0 0.00 0.00 0.00 42 1014.1
20260905173104 37 182 1.6 3.2 0.00 0.00 0.00 40 1014.3
20260905172603 37 210 1.6 3.2 0.00 0.00 0.00 42 1014.3